Time,TemperatureF,DewpointF,PressureIn,WindDirection,WindDirectionDegrees,WindSpeedMPH,WindSpeedGustMPH,Humidity,HourlyPrecipIn,Conditions,Clouds,dailyrainin,SoftwareType,DateUTC
2013-01-20 00:18:00,41.7,25.8,29.95,NNW,337,1.1,-999.0,53,-99.99,,,0.00,Acu-Link.com,2013-01-20 05:18:00,
2013-01-20 00:34:00,42.1,26.2,29.95,WSW,247,2.7,-999.0,53,-99.99,,,0.00,Acu-Link.com,2013-01-20 05:34:00,
2013-01-20 00:49:00,41.5,26.1,29.94,NNE,22,1.7,-999.0,54,-99.99,,,0.00,Acu-Link.com,2013-01-20 05:49:00,
2013-01-20 01:04:00,41.7,26.7,29.94,WSW,247,3.2,-999.0,55,-99.99,,,0.00,Acu-Link.com,2013-01-20 06:04:00,
2013-01-20 01:19:00,41.4,26.5,29.94,NNW,337,3.2,-999.0,55,-99.99,,,0.00,Acu-Link.com,2013-01-20 06:19:00,
2013-01-20 01:34:00,41.2,26.3,29.92,NE,45,1.7,-999.0,55,-99.99,,,0.00,Acu-Link.com,2013-01-20 06:34:00,
2013-01-20 01:49:00,41.5,26.6,29.92,SW,225,1.7,-999.0,55,-99.99,,,0.00,Acu-Link.com,2013-01-20 06:49:00,
2013-01-20 02:04:00,41.7,26.7,29.92,NNE,22,1.7,-999.0,55,-99.99,,,0.00,Acu-Link.com,2013-01-20 07:04:00,
2013-01-20 02:19:00,41.4,26.5,29.92,West,270,2.2,-999.0,55,-99.99,,,0.00,Acu-Link.com,2013-01-20 07:19:00,
2013-01-20 02:34:00,41.2,26.7,29.92,North,0,2.2,-999.0,56,-99.99,,,0.00,Acu-Link.com,2013-01-20 07:34:00,
2013-01-20 02:50:00,41.4,26.5,29.91,NNE,22,1.1,-999.0,55,-99.99,,,0.00,Acu-Link.com,2013-01-20 07:50:00,
2013-01-20 03:05:00,41.2,26.3,29.91,West,270,1.7,-999.0,55,-99.99,,,0.00,Acu-Link.com,2013-01-20 08:05:00,
2013-01-20 03:20:00,40.8,26.8,29.91,NW,315,1.7,-999.0,57,-99.99,,,0.00,Acu-Link.com,2013-01-20 08:20:00,
2013-01-20 03:35:00,40.6,26.6,29.91,NNE,22,1.7,-999.0,57,-99.99,,,0.00,Acu-Link.com,2013-01-20 08:35:00,
2013-01-20 03:50:00,40.3,26.3,29.91,ENE,67,2.2,-999.0,57,-99.99,,,0.00,Acu-Link.com,2013-01-20 08:50:00,
2013-01-20 04:15:00,40.5,26.5,29.91,North,0,1.7,-999.0,57,-99.99,,,0.00,Acu-Link.com,2013-01-20 09:15:00,
2013-01-20 04:30:00,39.6,27.3,29.90,NE,45,0.0,-999.0,61,-99.99,,,0.00,Acu-Link.com,2013-01-20 09:30:00,
2013-01-20 04:45:00,39.0,27.1,29.89,North,0,1.1,-999.0,62,-99.99,,,0.00,Acu-Link.com,2013-01-20 09:45:00,
2013-01-20 05:00:00,39.0,27.5,29.89,NNE,22,2.2,-999.0,63,-99.99,,,0.00,Acu-Link.com,2013-01-20 10:00:00,
2013-01-20 05:15:00,38.8,27.3,29.88,ENE,67,2.7,-999.0,63,-99.99,,,0.00,Acu-Link.com,2013-01-20 10:15:00,
2013-01-20 05:30:00,39.4,27.1,29.88,West,270,2.2,-999.0,61,-99.99,,,0.00,Acu-Link.com,2013-01-20 10:30:00,
2013-01-20 05:45:00,39.9,26.8,29.88,West,270,2.7,-999.0,59,-99.99,,,0.00,Acu-Link.com,2013-01-20 10:45:00,
2013-01-20 06:00:00,39.9,26.3,29.88,East,90,2.7,-999.0,58,-99.99,,,0.00,Acu-Link.com,2013-01-20 11:00:00,
2013-01-20 06:16:00,40.1,26.1,29.88,NNE,22,2.2,-999.0,57,-99.99,,,0.00,Acu-Link.com,2013-01-20 11:16:00,
2013-01-20 06:31:00,40.3,26.7,29.89,NNE,22,1.7,-999.0,58,-99.99,,,0.00,Acu-Link.com,2013-01-20 11:31:00,
2013-01-20 06:46:00,39.6,26.5,29.89,South,180,0.0,-999.0,59,-99.99,,,0.00,Acu-Link.com,2013-01-20 11:46:00,
2013-01-20 07:01:00,39.2,26.1,29.89,NNW,337,1.1,-999.0,59,-99.99,,,0.00,Acu-Link.com,2013-01-20 12:01:00,
2013-01-20 07:16:00,39.4,26.3,29.89,SSW,202,2.2,-999.0,59,-99.99,,,0.00,Acu-Link.com,2013-01-20 12:16:00,
2013-01-20 07:31:00,39.0,25.9,29.89,NE,45,2.2,-999.0,59,-99.99,,,0.00,Acu-Link.com,2013-01-20 12:31:00,
2013-01-20 07:46:00,40.3,25.4,29.89,ESE,112,1.7,-999.0,55,-99.99,,,0.00,Acu-Link.com,2013-01-20 12:46:00,
2013-01-20 08:01:00,39.4,25.5,29.90,NE,45,2.2,-999.0,57,-99.99,,,0.00,Acu-Link.com,2013-01-20 13:01:00,
2013-01-20 08:16:00,39.2,25.7,29.90,ENE,67,0.0,-999.0,58,-99.99,,,0.00,Acu-Link.com,2013-01-20 13:16:00,
2013-01-20 08:32:00,40.3,25.9,29.91,SW,225,0.0,-999.0,56,-99.99,,,0.00,Acu-Link.com,2013-01-20 13:32:00,
2013-01-20 08:47:00,40.3,25.9,29.90,NE,45,1.7,-999.0,56,-99.99,,,0.00,Acu-Link.com,2013-01-20 13:47:00,
2013-01-20 09:02:00,40.5,26.1,29.90,West,270,1.7,-999.0,56,-99.99,,,0.00,Acu-Link.com,2013-01-20 14:02:00,
2013-01-20 09:17:00,41.4,26.5,29.90,West,270,0.0,-999.0,55,-99.99,,,0.00,Acu-Link.com,2013-01-20 14:17:00,
2013-01-20 09:32:00,43.0,27.5,29.90,SSW,202,0.0,-999.0,54,-99.99,,,0.00,Acu-Link.com,2013-01-20 14:32:00,
2013-01-20 09:47:00,43.5,28.0,29.91,South,180,2.2,-999.0,54,-99.99,,,0.00,Acu-Link.com,2013-01-20 14:47:00,
2013-01-20 10:02:00,44.4,28.4,29.91,ENE,67,0.0,-999.0,53,-99.99,,,0.00,Acu-Link.com,2013-01-20 15:02:00,
2013-01-20 10:17:00,45.9,29.3,29.92,SSW,202,2.2,-999.0,52,-99.99,,,0.00,Acu-Link.com,2013-01-20 15:17:00,
2013-01-20 10:32:00,47.3,29.6,29.91,NW,315,2.2,-999.0,50,-99.99,,,0.00,Acu-Link.com,2013-01-20 15:32:00,
2013-01-20 10:47:00,48.0,29.8,29.92,South,180,1.7,-999.0,49,-99.99,,,0.00,Acu-Link.com,2013-01-20 15:47:00,
2013-01-20 11:03:00,49.8,31.4,29.91,South,180,0.0,-999.0,49,-99.99,,,0.00,Acu-Link.com,2013-01-20 16:03:00,
2013-01-20 11:18:00,51.4,32.4,29.90,WNW,292,1.7,-999.0,48,-99.99,,,0.00,Acu-Link.com,2013-01-20 16:18:00,
2013-01-20 11:33:00,52.7,32.0,29.89,ENE,67,2.2,-999.0,45,-99.99,,,0.00,Acu-Link.com,2013-01-20 16:33:00,
2013-01-20 11:48:00,54.5,33.0,29.89,West,270,2.7,-999.0,44,-99.99,,,0.00,Acu-Link.com,2013-01-20 16:48:00,
2013-01-20 12:03:00,55.0,32.9,29.87,NNE,22,3.2,-999.0,43,-99.99,,,0.00,Acu-Link.com,2013-01-20 17:03:00,
2013-01-20 12:18:00,56.1,33.9,29.86,SW,225,2.7,-999.0,43,-99.99,,,0.00,Acu-Link.com,2013-01-20 17:18:00,
2013-01-20 12:33:00,57.6,34.7,29.85,NNE,22,1.7,-999.0,42,-99.99,,,0.00,Acu-Link.com,2013-01-20 17:33:00,
2013-01-20 12:48:00,59.2,35.5,29.84,WNW,292,4.7,-999.0,41,-99.99,,,0.00,Acu-Link.com,2013-01-20 17:48:00,
2013-01-20 13:03:00,59.0,35.3,29.84,SW,225,3.2,-999.0,41,-99.99,,,0.00,Acu-Link.com,2013-01-20 18:03:00,
2013-01-20 13:19:00,59.0,34.7,29.83,SW,225,3.7,-999.0,40,-99.99,,,0.00,Acu-Link.com,2013-01-20 18:19:00,
2013-01-20 13:34:00,59.9,35.5,29.82,West,270,4.7,-999.0,40,-99.99,,,0.00,Acu-Link.com,2013-01-20 18:34:00,
2013-01-20 13:49:00,60.6,36.1,29.82,NW,315,1.7,-999.0,40,-99.99,,,0.00,Acu-Link.com,2013-01-20 18:49:00,
2013-01-20 14:04:00,61.0,35.2,29.81,SSE,157,1.1,-999.0,38,-99.99,,,0.00,Acu-Link.com,2013-01-20 19:04:00,
2013-01-20 14:19:00,62.4,36.5,29.81,West,270,6.8,-999.0,38,-99.99,,,0.00,Acu-Link.com,2013-01-20 19:19:00,
2013-01-20 14:34:00,62.8,35.4,29.80,SW,225,4.7,-999.0,36,-99.99,,,0.00,Acu-Link.com,2013-01-20 19:34:00,
2013-01-20 14:49:00,62.6,34.6,29.80,SW,225,4.2,-999.0,35,-99.99,,,0.00,Acu-Link.com,2013-01-20 19:49:00,
2013-01-20 15:04:00,63.0,34.2,29.80,ESE,112,2.7,-999.0,34,-99.99,,,0.00,Acu-Link.com,2013-01-20 20:04:00,
2013-01-20 15:19:00,63.9,34.2,29.80,SSW,202,3.2,-999.0,33,-99.99,,,0.00,Acu-Link.com,2013-01-20 20:19:00,
2013-01-20 15:35:00,63.1,35.0,29.80,SW,225,3.7,-999.0,35,-99.99,,,0.00,Acu-Link.com,2013-01-20 20:35:00,
2013-01-20 15:50:00,63.1,34.3,29.79,NNW,337,2.7,-999.0,34,-99.99,,,0.00,Acu-Link.com,2013-01-20 20:50:00,
2013-01-20 16:05:00,63.5,34.6,29.79,SW,225,2.7,-999.0,34,-99.99,,,0.00,Acu-Link.com,2013-01-20 21:05:00,
2013-01-20 16:20:00,63.7,36.2,29.79,SW,225,4.2,-999.0,36,-99.99,,,0.00,Acu-Link.com,2013-01-20 21:20:00,
2013-01-20 16:35:00,63.3,37.3,29.79,SSE,157,2.2,-999.0,38,-99.99,,,0.00,Acu-Link.com,2013-01-20 21:35:00,
2013-01-20 16:50:00,62.4,36.5,29.80,SSW,202,1.1,-999.0,38,-99.99,,,0.00,Acu-Link.com,2013-01-20 21:50:00,
2013-01-20 17:05:00,62.1,36.8,29.80,NNW,337,1.1,-999.0,39,-99.99,,,0.00,Acu-Link.com,2013-01-20 22:05:00,
2013-01-20 17:20:00,61.2,37.3,29.80,SSW,202,1.7,-999.0,41,-99.99,,,0.00,Acu-Link.com,2013-01-20 22:20:00,
2013-01-20 17:35:00,61.3,38.0,29.80,ESE,112,1.1,-999.0,42,-99.99,,,0.00,Acu-Link.com,2013-01-20 22:35:00,
2013-01-20 17:51:00,59.9,37.9,29.81,ESE,112,0.0,-999.0,44,-99.99,,,0.00,Acu-Link.com,2013-01-20 22:51:00,
2013-01-20 18:06:00,57.9,37.2,29.81,SSE,157,0.0,-999.0,46,-99.99,,,0.00,Acu-Link.com,2013-01-20 23:06:00,
2013-01-20 18:21:00,56.5,36.5,29.81,SSE,157,1.1,-999.0,47,-99.99,,,0.00,Acu-Link.com,2013-01-20 23:21:00,
2013-01-20 18:36:00,55.2,34.2,29.82,SE,135,0.0,-999.0,45,-99.99,,,0.00,Acu-Link.com,2013-01-20 23:36:00,
2013-01-20 19:06:00,55.8,29.9,29.82,NNE,22,2.7,-999.0,37,-99.99,,,0.00,Acu-Link.com,2013-01-21 00:06:00,
2013-01-20 20:07:00,53.2,28.9,29.83,NW,315,1.7,-999.0,39,-99.99,,,0.00,Acu-Link.com,2013-01-21 01:07:00,
2013-01-20 20:37:00,51.1,30.0,29.84,NNE,22,1.1,-999.0,44,-99.99,,,0.00,Acu-Link.com,2013-01-21 01:37:00,
2013-01-20 20:52:00,50.9,28.6,29.84,SSW,202,2.7,-999.0,42,-99.99,,,0.00,Acu-Link.com,2013-01-21 01:52:00,
2013-01-20 21:07:00,50.7,29.0,29.84,North,0,1.1,-999.0,43,-99.99,,,0.00,Acu-Link.com,2013-01-21 02:07:00,
2013-01-20 21:22:00,52.2,26.7,29.84,East,90,2.2,-999.0,37,-99.99,,,0.00,Acu-Link.com,2013-01-21 02:22:00,
2013-01-20 21:37:00,52.5,26.3,29.84,SW,225,3.2,-999.0,36,-99.99,,,0.00,Acu-Link.com,2013-01-21 02:37:00,
2013-01-20 21:52:00,51.1,28.2,29.84,SSW,202,1.1,-999.0,41,-99.99,,,0.00,Acu-Link.com,2013-01-21 02:52:00,
2013-01-20 22:07:00,50.4,28.2,29.85,East,90,0.0,-999.0,42,-99.99,,,0.00,Acu-Link.com,2013-01-21 03:07:00,
2013-01-20 22:23:00,48.7,27.2,29.85,East,90,1.7,-999.0,43,-99.99,,,0.00,Acu-Link.com,2013-01-21 03:23:00,
2013-01-20 22:38:00,48.4,25.8,29.85,SW,225,0.0,-999.0,41,-99.99,,,0.00,Acu-Link.com,2013-01-21 03:38:00,
2013-01-20 22:53:00,47.1,27.9,29.85,SSE,157,0.0,-999.0,47,-99.99,,,0.00,Acu-Link.com,2013-01-21 03:53:00,
2013-01-20 23:08:00,46.4,27.3,29.85,South,180,0.0,-999.0,47,-99.99,,,0.00,Acu-Link.com,2013-01-21 04:08:00,
2013-01-20 23:23:00,45.5,28.0,29.85,ESE,112,0.0,-999.0,50,-99.99,,,0.00,Acu-Link.com,2013-01-21 04:23:00,
2013-01-20 23:38:00,45.1,27.1,29.85,SW,225,0.0,-999.0,49,-99.99,,,0.00,Acu-Link.com,2013-01-21 04:38:00,
2013-01-20 23:53:00,45.1,27.1,29.85,ESE,112,1.1,-999.0,49,-99.99,,,0.00,Acu-Link.com,2013-01-21 04:53:00,